Weather in Perevoz

Russia / Tambov Oblast     52°07′39″N   42°17′15″E
temp.,
°C
wind,
m/s
gust,
m/s
humid.,
%
clouds,
%
prec.,
mm/h
press.,
hPa
HPBL,
m
3 march, wed
wed300:000nw51094100 0.1 1007523
03:00−2nw599493 0.1 1009340
06:00−3nw6109489 0.1 1009453
09:00−2nnw6109494 0.2 1012834
12:00−2nnw6108360 0.1 1014836
15:00−3nw6108532 0.1 1015721
18:00−4nw6118551 0.0 1016505
21:00−6w5119264 0.0 1017250
4 march, thu
thu400:00−5wsw5129432 0.0 1015285
03:00−2w7139266 0.1 1013589
06:00−2wsw71391100 0.1 1011678
09:00−1wsw81492100 0.3 1009654
12:00+1wsw8169196 0.0 1008699
15:00+1wsw8168581 0.0 1007803
18:000wsw6168193 0.0 1005572
21:000wsw6158496 0.0 1004543
5 march, fri
fri500:00+1sw61392100 0.0 1002505
03:00+1wsw71498100 0.3 1000480
06:00+1w61398100 0.7 1001573
09:000wnw61097100 1.2 1003573
12:00−2nnw468996 0.1 1006569
15:00−1nnw248595 0.1 1009633
18:00−3n1291100 0.1 101124
21:00−4ene1292100 0.1 101327
6 march, sat
sat600:00−5ne2393100 0.0 1012112
03:00−5nne2294100 0.0 101296
06:00−7n3694100 0.0 1012142
09:00−7nnw479196 0.0 1014283
12:00−5nnw588132 0.0 1015556
15:00−4nw477717 0.0 1015914
18:00−8wnw36880 0.0 1016143
21:00−9nw35920 0.0 1018135
7 march, sun
sun700:00−11nw349139 0.0 1018143
03:00−12w238720 0.0 101842
06:00−12sw36900 0.0 1017133
09:00−8sw7138817 0.0 1015553
12:00−5sw91476100 0.0 1012920
15:00−3sw101772100 0.0 10091124
18:00−3sw91772100 0.0 10071107
21:00−3wsw91777100 0.0 1005954